Location: Kellogg
(38.0159°N, 90.0546°W)
Time: 13:01:51
(UTC+00:00)

Transit 2A - Pass Details

Date: 19 September 2024
Orbit: 590 x 960 km, 66.7° (Epoch: 11 October)

Event Time Altitude Azimuth Distance (km) Brightness Sun altitude
Rises 00:30:31 0° 238° (WSW) 3,420 10.3 -6.3°
Reaches altitude 10° 00:33:12 10° 249° (WSW) 2,540 9.8 -6.9°
Maximum altitude 00:38:25 31° 310° (NW) 1,574 8.3 -7.9°
Drops below altitude 10° 00:43:56 10° 10° (N) 2,685 8.8 -9.0°
Sets 00:46:52 0° 21° (NNE) 3,647 9.4 -9.5°
